Weather in Burkandya

Russia / Magadan District     63°22′46″N   147°32′43″E
temp.,
°C
wind,
m/s
gust,
m/s
humid.,
%
clouds,
%
prec.,
mm/h
press.,
hPa
HPBL,
m
14 may, fri
fri1423:00−1ssw2399100 4.4 1005191
02:00−1s11100100 1.3 100682
05:00−2nnw229284 1.6 100878
08:00−3n228576 0.1 1010220
11:00−2nw237370 0.4 1011769
14:00−2nnw347068 0.9 1012872
17:00−2n236255 1.2 1013972
20:00−4ne22745 0.0 1016298
15 may, sat
sat1523:00−9nne32803 0.0 102044
02:00−10nne32803 0.0 102130
05:00−11nne22782 0.0 102127
08:00−6nne00681 0.0 1019125
11:00−3sse11605 0.0 1017424
14:000ese12585 0.0 1015686
17:00+1e23575 0.0 1013764
20:00−1ene13615 0.0 1013423
16 may, sun
sun1623:00−5ne11695 0.0 101513
02:00−5ne227790 0.0 101411
05:00−2ese118293 0.0 101357
08:00−1sse348793 0.1 1011396
11:00+1sse347382 0.2 1009868
14:00+3sse246881 0.0 10071212
17:00+4sse2368100 0.1 1005531
20:00+2ese2376100 0.2 1005465
17 may, mon
mon1723:00−1e117695 0.2 100722
02:00−2ene1180100 0.0 100610
05:00−1sse1282100 0.1 100689
08:00−1sse3490100 0.3 1006408
11:00+1sse2369100 0.4 1004782
14:00+3se135887 0.0 10021147
17:00+4ne1257100 0.1 1000766
20:00+2ene1267100 0.0 1001434
18 may, tue
tue1823:000nne2273100 0.1 100224
02:00−2nne3272100 0.0 100230
05:00−2nne227059 0.0 100119
08:000ene116552 0.0 1000229
11:00+2ese1262100 0.0 999882
14:00+3ene226299 0.2 999969
17:00+3ene2260100 0.3 998909
20:00+2ne2264100 0.0 999353